ROMMA est une association bénévole à but non lucratif. Votre soutien est indispensable : ADHERER à ROMMA ou FAIRE un DON

Briord - (01, Ain)

Bugey (281 m)   Longitude: 05° 29' 13" E   Latitude: 45° 46' 37" N Station partenaire n°15
 

Détail journalier du     <<     >>

Température Precipitation Humidité Pression Vent Dir Rafale Dir. rafale Ensol.
Heure (°C) (mm) (%) (hPa) (km/h) (km/h) (min)
01:00 2.8095102500---0
02:00 2.2095102500---0
03:00 1.8095102600---0
04:00 1.7095102600---0
05:00 2.1095102600---0
06:00 1.70.295102600---0
07:00 2.1095102700---0
08:00 2.6096102600---0
09:00 2.8096102700---10
10:00 3.6096102700---55
11:00 4.7096102700---35
12:00 5.5096102700---15
13:00 6.5096102700---25
14:00 7.5096102600---20
15:00 8.3092102603SO30
16:00 8.2090102600---60
17:00 5.2093102600---15
18:00 3.2094102600---0
19:00 2.8095102600---0
20:00 1.4094102600---0
21:00 1.1095102500---0
22:00 1.1095102500---0
23:00 1.30.295102500---0
minuit 1.6095102500---0

Graphique du 25-12-2019

 

Serveur OMMA